Terminal Aerodrome Forecast
Issued by NWS Boston, MA

Home | Current Version | Previous Version | Text Only | Print | Product List | Glossary On
Versions: 1 2 3 4 5 6 7 8 9 10 11 12 13 14 15 16 17 18 19 20 21 22 23 24 25 26 27 28 29 30 31 32 33 34 35 36 37 38 39 40 41 42
000
FTUS41 KBOX 220812 AAA
TAFPVD
TAF AMD
KPVD 220812Z 2208/2306 27006KT P6SM SCT100
     FM220930 27010KT P6SM SCT100
     FM221400 28011G20KT P6SM FEW250
     FM221900 29013G25KT P6SM SCT080
     FM230000 30009KT P6SM SKC=

USA.gov is the U.S. government's official web portal to all federal, state and local government web resources and services.